Flag for Italy Weather past 2 weeks in Ancona, Italy

Now
81 °F

Sunny.


Feels Like: 83 °F
Forecast: 71 / 83 °F
Wind: 10 mph from Northwest

Location: Falconara

Current Time: Aug 4, 2015 at 11:57:06 AM

Latest Report: Aug 4, 2015 at 10:50 AM


Visibility: 10 mi

Pressure: 29.98 "Hg

Humidity: 62%

Dew point: 66 °F

Location of AnconaLocation

Historic Weather in Ancona — Graph

°F

Ancona temperature yesterday

Maximum temperature yesterday: 81 °F (at 12:50 PM)
Minimum temperature yesterday: 70 °F (at 12:50 AM)
Average temperature yesterday: 76 °F

Past Weeks' High & Low Weather Summary

 TemperatureHumidityPressure
High93 °F (Jul 23, 5:50 PM)100% (Aug 2, 4:50 AM)30.04 "Hg (Aug 2, 4:50 AM)
Low66 °F (Aug 1, 3:50 AM)27% (Jul 22, 5:50 PM)29.68 "Hg (Jul 27, 3:50 PM)
Average80 °F61%29.85 "Hg
* Reported Jul 20 10:50 AM — Aug 4 10:50 AM, Ancona, Weather by CustomWeather, © 2015

Note: Actual official high and low records may vary slightly from our data, if they occured in-between our weather recording intervals... More about our weather records

Advertising

Ancona weather history for previous 24 hours

 ConditionsComfort  
Time TempWeatherWind HumidityBarometerVisibility
10:50 AM
Tue, Aug 4
81 °FSunny.10 mph62%29.98 "Hg10 mi
9:50 AM81 °FPassing clouds.8 mph58%29.98 "HgN/A
8:50 AM77 °FPassing clouds.3 mph65%29.98 "HgN/A
7:50 AM72 °FPassing clouds.5 mph78%29.95 "HgN/A
6:50 AM68 °FClear.5 mph88%29.95 "Hg10 mi
5:50 AM66 °FPassing clouds.3 mph88%29.95 "HgN/A
4:50 AM68 °FClear.3 mph88%29.98 "Hg10 mi
3:50 AM68 °FClear.3 mph88%29.98 "Hg10 mi
2:50 AM68 °FClear.6 mph88%29.98 "Hg10 mi
1:50 AM68 °FClear.2 mph94%29.98 "Hg10 mi
12:50 AM70 °FClear.3 mph88%29.98 "Hg10 mi
11:50 PM
Mon, Aug 3
70 °FClear.3 mph88%29.98 "Hg10 mi
10:50 PM73 °FClear.5 mph83%29.98 "Hg10 mi
9:50 PM75 °FClear.1 mph78%29.98 "Hg10 mi
8:50 PM75 °FSunny.3 mph78%29.98 "Hg10 mi
7:50 PM79 °FPassing clouds.7 mph70%29.98 "HgN/A
6:50 PM79 °FPassing clouds.8 mph70%29.98 "HgN/A
5:50 PM81 °FPassing clouds.8 mph70%29.98 "HgN/A
4:50 PM81 °FPassing clouds.8 mph66%30.01 "HgN/A
3:50 PM81 °FPassing clouds.9 mph70%30.01 "HgN/A
2:50 PM81 °FSunny.12 mph70%30.04 "Hg10 mi
1:50 PM81 °FPassing clouds.13 mph66%30.01 "HgN/A
12:50 PM81 °FPassing clouds.12 mph66%30.04 "HgN/A
11:50 AM79 °FPassing clouds.15 mph74%30.04 "HgN/A
Weather by CustomWeather, © 2015

See weather overviewHow to use our weather pages